Regional Weather Roundup
Issued by NWS

Home | Current Version | Previous Version | Text Only | Print | Product List | Glossary Off
Versions: 1 2 3 4 5 6 7 8 9 10 11 12 13 14 15 16 17 18 19 20 21 22 23 24 25 26 27 28 29 30 31 32 33 34 35 36 37 38 39 40 41 42 43 44 45 46 47 48 49 50

000
ASUS43 KMKX 110921
RWRWI

WISCONSIN REGIONAL WEATHER ROUNDUP
NATIONAL WEATHER SERVICE MILWAUKEE/SULLIVAN WI
400 AM CDT FRI JUL 11 2014

NOTE: "FAIR" INDICATES FEW OR NO CLOUDS BELOW 12,000 FEET WITH NO
SIGNIFICANT WEATHER AND/OR OBSTRUCTIONS TO VISIBILITY.

WIZ001-002-006>008-014>016-023>028-111000-
NORTHWEST WISCONSIN

CITY           SKY/WX    TMP DP  RH WIND       PRES   REMARKS
SUPERIOR ARPT  LGT RAIN  53  52  97 CALM      29.98S
ASHLAND        CLOUDY    69  62  78 S5        30.01S
HAYWARD        LGT RAIN  70  59  68 S10       30.02F
SIREN          LGT RAIN  69  59  72 SW8       30.01R
RICE LAKE      CLOUDY    67  58  73 SE9       30.04S
LADYSMITH      MOCLDY    67  61  80 S7        30.07F
EAU CLAIRE     PTCLDY    68  60  75 S9        30.04S
MENOMONIE      CLOUDY    70  58  64 S10       30.03F
NEW RICHMOND   CLOUDY    67  59  75 S13       30.00F
OSCEOLA        CLOUDY    69  61  75 S12       30.01S
$$

WIZ003>005-009-010-017-018-111000-
NORTH CENTRAL WISCONSIN

CITY           SKY/WX    TMP DP  RH WIND       PRES   REMARKS
WOODRUFF       MOCLDY    64  61  89 S5        30.09S
RHINELANDER    MOCLDY    61  59  93 CALM      30.11S
EAGLE RIVER    PTCLDY    60  59  96 CALM      30.10S
LAND O LAKES   PTCLDY    61  58  92 CALM      30.10S
PHILLIPS       CLOUDY    63  60  91 S6        30.08S
TOMAHAWK       PTCLDY    60  58  93 CALM      30.11S
MEDFORD        PTCLDY    61  59  94 S6        30.10R
MERRILL        PTCLDY    62  61  94 SE3       30.10S
$$

WIZ029-030-035-036-043>047-111000-
CENTRAL WISCONSIN

CITY           SKY/WX    TMP DP  RH WIND       PRES   REMARKS
WAUSAU         PTCLDY    65  61  87 S9        30.09F
MOSINEE        PTCLDY    61  61 100 S8        30.12F
MARSHFIELD     PTCLDY    62  60  93 S7        30.10S
STEVENS POINT  PTCLDY    63  58  84 S9        30.13S
WAUPACA        PTCLDY    62  60  92 CALM      30.13S
WAUTOMA        MOCLDY    62  60  93 SE3       30.14S
WISC RAPIDS    MOCLDY    64  60  87 S6        30.13S
CAMP DOUGLAS   PTCLDY    64  62  93 S5        30.12R
$$

WIZ011>013-019>022-031-037>040-048>050-111000-
NORTHEAST WISCONSIN

CITY           SKY/WX    TMP DP  RH WIND       PRES   REMARKS
ANTIGO         PTCLDY    57  57  97 S6        30.13S
STURGEON BAY   MOCLDY    63  45  51 S10       30.14S
GREEN BAY      PTCLDY    62  52  69 S7        30.14F
MANITOWOC      CLOUDY    62  51  67 S7        30.16S
APPLETON       PTCLDY    63  52  67 S8        30.14S
CLINTONVILLE   PTCLDY    59  55  88 CALM      30.13R
OSHKOSH        PTCLDY    63  55  75 S9        30.14S
$$

WIZ032>034-041-042-053>061-111000-
SOUTHWEST WISCONSIN

CITY           SKY/WX    TMP DP  RH WIND       PRES   REMARKS
LA CROSSE      MOCLDY    72  59  63 S13       30.08S
SPARTA         PTCLDY    65  57  75 S6        30.11S
VIROQUA        FAIR      64  59  82 S7        30.13S
BOSCOBEL       PTCLDY    63  59  87 CALM      30.12S
PRAIRIE DU CHI MOCLDY    67  57  72 CALM      30.12S
PLATTEVILLE    FAIR      62  59  90 S6        30.16S
$$

WIZ056-057-062-063-064-067-068-111000-
SOUTH CENTRAL WISCONSIN

CITY           SKY/WX    TMP DP  RH WIND       PRES   REMARKS
BARABOO/DELLS  PTCLDY    62  56  82 S7        30.14S
LONE ROCK      CLEAR     67  59  75 E3        30.14R
WATERTOWN      PTCLDY    59  54  84 CALM      30.16S
MADISON        PTCLDY    66  57  72 S7        30.16R
MIDDLETON      FAIR      65  56  73 CALM      30.16R
MONROE         CLEAR     61  55  82 S7        30.16S
JANESVILLE     CLEAR     61  52  72 S5        30.16S
$$

WIZ051-052-058>065-066-070>072-111000-
SOUTHEAST WISCONSIN

CITY           SKY/WX    TMP DP  RH WIND       PRES   REMARKS
MILWAUKEE      MOCLDY    62  51  67 S5        30.18S
WAUKESHA       MOCLDY    61  48  63 S6        30.18F
MILWAUKEE/TIMM CLOUDY    63  46  55 S5        30.18S
RACINE         PTCLDY    59  55  87 S5        30.20S
BURLINGTON     PTCLDY    53  52  97 CALM      30.18S
KENOSHA        PTCLDY    57  52  83 CALM      30.19S
FOND DU LAC    PTCLDY    60  52  74 S7        30.15F
SHEBOYGAN      MOCLDY    59  52  77 S5        30.16F
WEST BEND      MOCLDY    61  45  55 CALM      30.17S
JUNEAU         MOCLDY    61  38  43 S7        30.18R
$$

LSZ147-162-111000-
LAKE SUPERIOR

STATION/POSITION TIME  TEMP    WIND        PRES    WAVE
                       AIR SEA DIR/SP/G            HT/PER
                 (UTC) (F)     (DEG/KT/KT) (MB)    (FT/S)
W MID LAKE BUOY  0850   48 38   80/  4/  6 1015.6F   0
PORT WING        0800   56     210/  2/  2 1015.6S
SAXON HARBOR     0800          170/  3/  7 1016.3
$$

LMZ867-665-643>646-111000-
LAKE MICHIGAN

STATION/POSITION TIME  TEMP    WIND        PRES    WAVE
                       AIR SEA DIR/SP/G            HT/PER
                 (UTC) (F)     (DEG/KT/KT) (MB)    (FT/S)
N MID LAKE BUOY  0850   58 55  200/ 12/ 14 1020.5F   1/ 3
NORTHPORT PIER   0800   62     150/  5/  9 1020.7S
SISTER BAY       0725   60     160/  7/ 11   N/A
ALGOMA LAKESHORE 0820          230/  6/  7   N/A
KEWAUNEE LAKESHO 0900   52     170/  8/  9 1021.5S
SHEBOYGAN LAKESH 0900   62     200/  8/  8 1021.7S
PORT WASHINGTON  0840   62     240/  2/  5 1022.4S
MILWAUKEE LAKESH 0900   62     170/  4/  4   N/A
S MID LAKE BUOY  0850   60 58  230/  2/  4 1022.5S   0
KENOSHA   LAKESH 0900   63     200/  5/  7   N/A
$$

TC  - TEMPERATURE IN CELSIUS
VSB - VISIBILITY IN STATUTE MILES
WCI - WIND CHILL INDEX
HX  - HEAT INDEX



USA.gov is the U.S. government's official web portal to all federal, state and local government web resources and services.